Погода в Мисурате

Ливия     32°12′48″N   14°59′10″E
темп.,
°C
ветер,
м/с
пор.,
м/с
влажн.,
%
обл.,
%
осадки,
мм/ч
давл.,
гПа
погр.,
м
12 мая, ср
ср1223:00+21юв58570 0.0 1011165
02:00+20сз33535 0.0 101350
05:00+19ссз46805 0.0 1013109
08:00+21с796829 0.0 1015546
11:00+23с910530 0.0 1016797
14:00+23с99530 0.0 1016890
17:00+22с99530 0.0 1016819
20:00+19ссз68660 0.0 1017403
13 мая, чт
чт1323:00+18ссз57720 0.0 1017264
02:00+17ссз47733 0.0 1016176
05:00+16ссз57704 0.0 1015130
08:00+19ссз565714 0.0 1017505
11:00+23с55355 0.0 1017835
14:00+25ссв65275 0.0 1016846
17:00+23ссв66340 0.0 1015706
20:00+20св57525 0.0 1016208
14 мая, пт
пт1423:00+18в46605 0.0 1017150
02:00+17в346918 0.0 101674
05:00+17вюв2373100 0.0 101651
08:00+20юв45615 0.0 1017339
11:00+26юв56324 0.0 1017890
14:00+29вюв77255 0.0 10151121
17:00+27вюв77305 0.0 1014878
20:00+22вюв7950100 0.0 1015250
15 мая, сб
сб1523:00+21вюв7116027 0.0 1014261
02:00+19ююв45705 0.0 1013103
05:00+18ю3474100 0.0 101455
08:00+22ююз4550100 0.0 1014190
11:00+31з45210 0.0 1014813
14:00+28ссз109390 0.0 1014689
17:00+23с1011570 0.0 1015629
20:00+20с79645 0.0 1016406
16 мая, вс
вс1623:00+18ссз57624 0.0 1018226
02:00+17ссз456325 0.0 101785
05:00+17сз456651 0.0 101685
08:00+19сз57555 0.0 1017417
11:00+25ссз67315 0.0 1018781
14:00+26с77315 0.0 1017803
17:00+25ссв66350 0.0 1016606
20:00+21св45475 0.0 1016141